Location: Hopkins Observatory
(42.6965°N, 73.1843°W)
Time: 00:13:57
(UTC-04:00)

UOSAT-12 - Visible Passes

Search period start: 25 October 2014 00:00
Search period end: 03 November 2014 23:00
Orbit: 594 x 664 km, 64.6° (Epoch: 23 October)

Date Brightness Start Highest point End Pass type
(mag) Time Alt. Az. Time Alt. Az. Time Alt. Az.
31 Oct 9.6 19:48:21 10° N 19:48:51 11° NNE 19:48:51 11° NNE visible
01 Nov 9.5 20:07:51 10° N 20:08:50 14° N 20:08:50 14° N visible
02 Nov 9.5 19:27:50 10° NNW 19:28:52 16° NNW 19:28:52 16° NNW visible
03 Nov 9.1 18:09:15 10° N 18:11:36 14° NNE 18:11:36 14° NNE visible
03 Nov 9.7 19:48:05 10° NNW 19:48:57 15° NNW 19:48:57 15° NNW visible
